CW1187 Weather Reports


Display with metric or nautical units.
time (UTC)temp
F
wind
direction
speed
MPH
gust
MPH
rain 1hr
in
rain 24hr
in
rain mn
in
humidity
%
barometer
mb
20260903003615 86 198 1.0 4.0 0.00 0.00 0.00 69 1016.3
20260903002521 87 0 1.0 4.0 0.00 0.00 0.00 69 1016.2
20260903001434 87 0 0.0 3.0 0.00 0.00 0.00 69 1016.3
20260903000900 87 218 0.0 4.0 0.00 0.00 0.00 68 1016.3
20260902235733 88 222 2.0 5.0 0.00 0.00 0.00 67 1016.3
20260902235420 88 197 2.0 5.0 0.00 0.00 0.00 67 1016.3
20260902234148 89 0 1.0 5.0 0.00 0.00 0.00 66 1016.3
20260902234001 89 211 1.0 5.0 0.00 0.00 0.00 66 1016.2
20260902232630 90 0 1.0 4.0 0.00 0.00 0.00 64 1016.2
20260902231749 90 241 1.0 3.0 0.00 0.00 0.00 63 1016.2
20260902231433 91 0 1.0 3.0 0.00 0.00 0.00 63 1016.2
20260902225024 91 225 1.0 6.0 0.00 0.00 0.00 61 1016.2
20260902224933 91 220 2.0 7.0 0.00 0.00 0.00 60 1016.3
20260902224735 91 220 2.0 7.0 0.00 0.00 0.00 60 1016.3
20260902224627 91 220 2.0 7.0 0.00 0.00 0.00 60 1016.3
20260902224500 92 207 2.0 9.0 0.00 0.00 0.00 61 1016.3
20260902223054 92 195 2.0 7.0 0.00 0.00 0.00 60 1016.3
20260902222856 92 221 1.0 7.0 0.00 0.00 0.00 64 1016.3
20260902222758 92 221 1.0 7.0 0.00 0.00 0.00 64 1016.3
20260902221916 93 206 2.0 6.0 0.00 0.00 0.00 58 1016.3
20260902221759 93 206 2.0 6.0 0.00 0.00 0.00 58 1016.3
20260902221438 93 242 2.0 6.0 0.00 0.00 0.00 57 1016.4
20260902215338 94 231 2.0 7.0 0.00 0.00 0.00 56 1016.4
20260902214741 94 228 2.0 7.0 0.00 0.00 0.00 57 1016.4
20260902213439 95 235 2.0 7.0 0.00 0.00 0.00 55 1016.4
20260902212542 95 224 2.0 7.0 0.00 0.00 0.00 55 1016.5
20260902212224 95 213 3.0 7.0 0.00 0.00 0.00 60 1016.5
20260902211752 96 194 3.0 13.0 0.00 0.00 0.00 54 1016.5
20260902210846 96 233 2.0 8.0 0.00 0.00 0.00 53 1016.6
20260902210345 96 225 3.0 8.0 0.00 0.00 0.00 53 1016.5
20260902205729 96 182 3.0 7.0 0.00 0.00 0.00 52 1016.6
20260902205331 96 227 2.0 5.0 0.00 0.00 0.00 55 1016.6
20260902205107 96 227 2.0 5.0 0.00 0.00 0.00 55 1016.6
20260902204818 96 213 2.0 12.0 0.00 0.00 0.00 53 1016.6
20260902204229 96 248 2.0 12.0 0.00 0.00 0.00 54 1016.7
20260902203238 96 240 2.0 10.0 0.00 0.00 0.00 53 1016.7
20260902202838 96 146 3.0 10.0 0.00 0.00 0.00 52 1016.8
20260902201903 97 232 3.0 9.0 0.00 0.00 0.00 51 1017.0
20260902201147 97 174 2.0 9.0 0.00 0.00 0.00 51 1017.0
20260902200951 97 252 3.0 8.0 0.00 0.00 0.00 53 1017.0
20260902195929 96 234 2.0 7.0 0.00 0.00 0.00 53 1017.1
20260902194513 96 180 4.0 10.0 0.00 0.00 0.00 52 1017.4
20260902193901 96 194 3.0 11.0 0.00 0.00 0.00 58 1017.5
20260902193135 96 259 4.0 11.0 0.00 0.00 0.00 52 1017.4
20260902192939 97 177 3.0 8.0 0.00 0.00 0.00 53 1017.5
20260902190941 97 229 3.0 8.0 0.00 0.00 0.00 53 1017.6
20260902190503 96 246 2.0 12.0 0.00 0.00 0.00 60 1017.5
20260902185736 95 244 2.0 12.0 0.00 0.00 0.00 55 1017.6
20260902185627 95 244 2.0 12.0 0.00 0.00 0.00 55 1017.6
20260902185239 96 194 3.0 12.0 0.00 0.00 0.00 53 1017.6
20260902184448 95 234 4.0 10.0 0.00 0.00 0.00 56 1017.7
20260902184014 95 253 2.0 13.0 0.00 0.00 0.00 56 1017.7
20260902183819 95 253 2.0 13.0 0.00 0.00 0.00 56 1017.7
20260902183332 95 167 6.0 13.0 0.00 0.00 0.00 58 1017.7
20260902182219 95 244 3.0 8.0 0.00 0.00 0.00 54 1017.8
20260902181632 95 232 2.0 11.0 0.00 0.00 0.00 57 1017.9
20260902181319 94 239 2.0 11.0 0.00 0.00 0.00 59 1017.9
20260902180257 94 239 4.0 11.0 0.00 0.00 0.00 56 1018.0
20260902173751 94 266 3.0 11.0 0.00 0.00 0.00 57 1018.2
20260902173445 94 237 4.0 11.0 0.00 0.00 0.00 57 1018.2
20260902171959 94 241 3.0 11.0 0.00 0.00 0.00 58 1018.3
20260902170253 94 233 4.0 9.0 0.00 0.00 0.00 61 1018.4
20260902165950 94 250 3.0 8.0 0.00 0.00 0.00 61 1018.5
20260902165419 94 246 2.0 8.0 0.00 0.00 0.00 61 1018.5
20260902164934 93 249 3.0 8.0 0.00 0.00 0.00 65 1018.6
20260902164438 93 240 3.0 8.0 0.00 0.00 0.00 60 1018.7
20260902164002 93 231 3.0 11.0 0.00 0.00 0.00 62 1018.7
20260902162437 92 228 3.0 9.0 0.00 0.00 0.00 63 1018.8
20260902161627 93 217 3.0 11.0 0.00 0.00 0.00 66 1018.9
20260902160401 92 236 2.0 7.0 0.00 0.00 0.00 62 1018.9
20260902160036 92 250 2.0 7.0 0.00 0.00 0.00 63 1018.9
20260902155313 91 263 2.0 7.0 0.00 0.00 0.00 62 1018.9
20260902154417 91 188 2.0 9.0 0.00 0.00 0.00 68 1018.8
20260902153835 91 288 2.0 9.0 0.00 0.00 0.00 63 1018.9
20260902153429 91 202 3.0 7.0 0.00 0.00 0.00 63 1018.8
20260902152932 91 271 2.0 7.0 0.00 0.00 0.00 64 1018.9
20260902151824 91 0 2.0 6.0 0.00 0.00 0.00 66 1018.8
20260902151440 90 231 3.0 7.0 0.00 0.00 0.00 65 1018.9
20260902145351 89 246 3.0 8.0 0.00 0.00 0.00 66 1018.8
20260902144624 89 236 1.0 6.0 0.00 0.00 0.00 66 1018.8
20260902143902 88 250 1.0 5.0 0.00 0.00 0.00 68 1019.0
20260902143249 88 259 2.0 5.0 0.00 0.00 0.00 68 1019.0
20260902143045 87 248 2.0 7.0 0.00 0.00 0.00 68 1019.0
20260902142445 87 279 1.0 7.0 0.00 0.00 0.00 68 1018.9
20260902141201 86 270 3.0 8.0 0.00 0.00 0.00 68 1019.0
20260902140946 86 242 1.0 7.0 0.00 0.00 0.00 69 1019.1
20260902135931 85 230 3.0 8.0 0.00 0.00 0.00 75 1019.1
20260902135024 85 245 2.0 5.0 0.00 0.00 0.00 71 1019.0
20260902133133 83 254 2.0 4.0 0.00 0.00 0.00 74 1019.0
20260902133023 82 237 2.0 4.0 0.00 0.00 0.00 75 1019.0
20260902131848 81 201 1.0 4.0 0.00 0.00 0.00 77 1019.1
20260902130904 80 248 1.0 3.0 0.00 0.00 0.00 79 1019.0
20260902125832 79 205 1.0 4.0 0.00 0.00 0.00 80 1019.0
20260902124941 78 236 0.0 2.0 0.00 0.00 0.00 81 1019.0
20260902124152 77 0 0.0 3.0 0.00 0.00 0.00 81 1018.9
20260902122941 76 227 1.0 3.0 0.00 0.00 0.00 83 1019.0
20260902122236 76 227 1.0 3.0 0.00 0.00 0.00 83 1019.1
20260902121915 76 226 0.0 3.0 0.00 0.00 0.00 83 1018.9
20260902114935 74 221 0.0 3.0 0.00 0.00 0.00 83 1018.7
20260902113418 74 0 0.0 2.0 0.00 0.00 0.00 83 1018.5
20260902112018 75 0 0.0 3.0 0.00 0.00 0.00 82 1018.4
20260902110144 75 0 0.0 2.0 0.00 0.00 0.00 82 1018.3
20260902103825 75 204 1.0 3.0 0.00 0.00 0.00 82 1018.2
20260902103726 75 204 1.0 3.0 0.00 0.00 0.00 82 1018.2
20260902103250 75 204 0.0 3.0 0.00 0.00 0.00 82 1018.2
20260902102524 75 206 0.0 3.0 0.00 0.00 0.00 82 1018.0
20260902101903 75 205 0.0 2.0 0.00 0.00 0.00 81 1018.0
20260902101539 75 205 0.0 3.0 0.00 0.00 0.00 81 1018.0
20260902100431 75 206 1.0 3.0 0.00 0.00 0.00 81 1017.9
20260902095859 75 204 0.0 3.0 0.00 0.00 0.00 81 1017.9
20260902094334 76 207 0.0 3.0 0.00 0.00 0.00 81 1017.7
20260902093719 76 208 1.0 3.0 0.00 0.00 0.00 81 1017.8
20260902093554 76 208 1.0 3.0 0.00 0.00 0.00 81 1017.8
20260902091920 76 0 0.0 5.0 0.00 0.00 0.00 81 1017.9
20260902090350 76 212 1.0 5.0 0.00 0.00 0.00 80 1017.8
20260902085658 76 209 1.0 5.0 0.00 0.00 0.00 80 1017.6
20260902085450 76 0 2.0 5.0 0.00 0.00 0.00 80 1017.6
20260902084240 76 198 0.0 6.0 0.00 0.00 0.00 80 1017.6
20260902082358 76 218 0.0 2.0 0.00 0.00 0.00 79 1017.5
20260902081748 77 219 0.0 2.0 0.00 0.00 0.00 79 1017.5
20260902081547 77 217 0.0 3.0 0.00 0.00 0.00 79 1017.5
20260902075920 77 209 1.0 3.0 0.00 0.00 0.00 79 1017.4
20260902075436 77 207 0.0 4.0 0.00 0.00 0.00 78 1017.4
20260902074608 77 207 2.0 4.0 0.00 0.00 0.00 78 1017.4
20260902073737 77 208 1.0 5.0 0.00 0.00 0.00 78 1017.4
20260902073325 78 0 0.0 2.0 0.00 0.00 0.00 78 1017.5
20260902072651 78 200 0.0 4.0 0.00 0.00 0.00 77 1017.5
20260902072003 78 221 2.0 6.0 0.00 0.00 0.00 77 1017.5
20260902070819 78 206 2.0 5.0 0.00 0.00 0.00 77 1017.5
20260902070727 78 206 2.0 5.0 0.00 0.00 0.00 77 1017.5
20260902070006 78 209 3.0 5.0 0.00 0.00 0.00 77 1017.5
20260902065918 78 209 3.0 5.0 0.00 0.00 0.00 77 1017.5
20260902065218 78 209 2.0 5.0 0.00 0.00 0.00 77 1017.6
20260902063535 79 217 1.0 4.0 0.00 0.00 0.00 76 1017.5
20260902061957 79 0 1.0 4.0 0.00 0.00 0.00 76 1017.5
20260902060755 79 211 1.0 4.0 0.00 0.00 0.00 76 1017.6
20260902060428 79 205 1.0 4.0 0.00 0.00 0.00 76 1017.7
20260902054632 79 0 0.0 4.0 0.00 0.00 0.00 76 1017.6
20260902054419 79 215 0.0 4.0 0.00 0.00 0.00 76 1017.6
20260902053628 79 216 1.0 3.0 0.00 0.00 0.00 76 1017.5
20260902053420 79 219 1.0 3.0 0.00 0.00 0.00 76 1017.5
20260902052955 79 219 0.0 3.0 0.00 0.00 0.00 76 1017.4
20260902052319 79 219 1.0 4.0 0.00 0.00 0.00 76 1017.5
20260902051907 79 0 1.0 4.0 0.00 0.00 0.00 76 1017.5
20260902051441 79 209 1.0 4.0 0.00 0.00 0.00 76 1017.4
20260902045637 80 207 1.0 4.0 0.00 0.00 0.00 76 1017.4
20260902045454 80 0 2.0 5.0 0.00 0.00 0.00 76 1017.4
20260902044610 80 199 1.0 6.0 0.00 0.00 0.00 76 1017.4
20260902044350 80 200 2.0 6.0 0.00 0.00 0.00 75 1017.3
20260902043555 80 201 2.0 6.0 0.00 0.00 0.00 75 1017.3
20260902043457 80 205 2.0 6.0 0.00 0.00 0.00 75 1017.4
20260902041129 80 0 1.0 4.0 0.00 0.00 0.00 75 1017.5
20260902040250 81 202 2.0 4.0 0.00 0.00 0.00 75 1017.4
20260902035859 81 212 1.0 4.0 0.00 0.00 0.00 75 1017.4
20260902035036 81 207 1.0 5.0 0.00 0.00 0.00 75 1017.5
20260902035014 81 211 2.0 5.0 0.00 0.00 0.00 75 1017.5
20260902033617 81 205 2.0 5.0 0.00 0.00 0.00 75 1017.4
20260902032929 81 222 2.0 5.0 0.00 0.00 0.00 76 1017.5
20260902032434 81 0 0.0 4.0 0.00 0.00 0.00 76 1017.5
20260902031452 81 203 0.0 3.0 0.00 0.00 0.00 76 1017.5
20260902030911 81 203 1.0 3.0 0.00 0.00 0.00 76 1017.5
20260902030302 81 0 1.0 3.0 0.00 0.00 0.00 76 1017.6
20260902025227 82 200 0.0 3.0 0.00 0.00 0.00 76 1017.6
20260902023929 82 211 1.0 4.0 0.00 0.00 0.00 76 1017.6
20260902022838 82 181 1.0 4.0 0.00 0.00 0.00 76 1017.5
20260902022345 82 180 1.0 4.0 0.00 0.00 0.00 75 1017.5
20260902021141 82 175 1.0 4.0 0.00 0.00 0.00 75 1017.4
20260902021030 82 175 1.0 4.0 0.00 0.00 0.00 75 1017.4
20260902020038 83 178 1.0 3.0 0.00 0.00 0.00 74 1017.3
20260902012044 84 192 1.0 3.0 0.00 0.00 0.00 73 1017.1
20260902011225 85 198 0.0 3.0 0.00 0.00 0.00 72 1017.1
20260902010827 85 205 0.0 2.0 0.00 0.00 0.00 71 1017.0
20260902010238 85 0 0.0 2.0 0.00 0.00 0.00 71 1017.0
20260902005851 85 0 0.0 2.0 0.00 0.00 0.00 71 1017.0
20260902005328 85 0 0.0 2.0 0.00 0.00 0.00 71 1016.9